FW8351 Weather Reports


time (UTC)temp
F
wind
direction
speed
knots
gust
knots
rain 1hr
in
rain 24hr
in
rain mn
in
humidity
%
barometer
mb
20260504173012 48 225 0.0 0.0 0.01 0.01 0.01 93 1008.7
20260504171557 48 225 0.0 0.0 0.01 0.01 0.01 92 1008.7
20260504160121 49 321 0.0 0.0 0.00 0.00 0.00 91 1008.7
20260504090106 50 288 0.0 0.0 0.00 0.00 0.00 92 1010.7
20260504081551 48 256 0.0 0.0 0.00 0.00 0.00 95 1010.8
20260504050009 44 58 0.0 0.0 0.00 0.00 0.00 94 1010.4
20260504044553 44 58 0.0 0.0 0.00 0.00 0.00 94 1010.3
20260504043055 44 29 0.0 0.0 0.00 0.00 0.00 94 1010.5
20260504041521 44 29 0.0 0.0 0.00 0.00 0.00 93 1010.7
20260504040047 44 29 0.0 0.0 0.00 0.00 0.00 93 1010.6
20260504034519 44 29 0.0 0.0 0.00 0.00 0.00 92 1010.7
20260504033102 45 274 0.0 0.0 0.00 0.00 0.00 92 1010.3
20260504031602 45 274 0.0 0.0 0.00 0.00 0.00 92 1010.6
20260504030057 46 274 0.0 0.0 0.00 0.00 0.00 93 1010.7
20260504024604 46 274 0.0 0.0 0.00 0.00 0.00 93 1010.8
20260504023027 46 274 0.0 0.0 0.00 0.00 0.00 93 1010.6
20260504021515 46 276 0.0 0.0 0.00 0.00 0.00 93 1010.7
20260504020058 46 276 0.0 0.0 0.00 0.00 0.00 93 1010.8
20260504014537 46 276 0.0 0.0 0.00 0.00 0.00 93 1011.0
20260504013118 46 276 0.0 0.0 0.00 0.00 0.00 93 1011.1
20260504011537 47 276 0.0 0.0 0.00 0.00 0.00 93 1011.2
20260504010010 47 143 0.0 0.0 0.00 0.00 0.00 93 1011.2
20260504004606 47 143 0.0 0.0 0.00 0.00 0.00 92 1011.3
20260504003034 47 143 0.0 0.0 0.00 0.00 0.00 92 1011.2
20260504001540 47 143 0.0 0.0 0.00 0.00 0.00 92 1011.1
20260504000030 47 143 0.0 0.0 0.00 0.00 0.00 92 1011.3
20260503234506 47 143 0.0 0.0 0.00 0.00 0.00 92 1011.4
20260503233057 47 143 0.0 0.0 0.00 0.00 0.00 92 1011.3
20260503231530 47 143 0.0 0.0 0.00 0.00 0.00 92 1011.4
20260503230057 47 47 0.0 0.0 0.00 0.00 0.00 92 1011.3
20260503224538 47 47 0.0 0.0 0.00 0.00 0.00 92 1011.3
20260503223039 47 199 0.0 0.0 0.00 0.00 0.00 91 1011.5
20260503221529 47 215 0.0 0.0 0.00 0.00 0.00 91 1011.7
20260503220007 47 316 0.0 0.0 0.00 0.00 0.00 91 1011.7
20260503214553 48 318 0.0 0.0 0.00 0.00 0.00 92 1011.5
20260503213046 48 315 0.0 0.0 0.00 0.00 0.00 92 1011.4
20260503211519 48 332 0.0 0.0 0.00 0.00 0.00 92 1011.4
20260503210045 48 318 0.0 0.0 0.00 0.00 0.00 92 1011.5
20260503204517 48 290 0.0 0.0 0.00 0.00 0.00 91 1011.4
20260503203042 48 289 0.0 7.0 0.00 0.00 0.00 90 1011.5
20260503201532 49 194 1.7 8.7 0.00 0.00 0.00 89 1011.3
20260503200040 49 212 0.0 3.5 0.00 0.00 0.00 88 1011.0
20260503194533 50 251 0.9 6.1 0.00 0.00 0.00 88 1010.7
20260503193040 50 273 0.0 1.7 0.00 0.00 0.00 87 1010.4
20260503191539 50 219 0.0 0.9 0.00 0.00 0.00 87 1010.3
20260503190027 50 268 0.0 0.0 0.00 0.00 0.00 87 1010.2
20260503184510 51 218 0.0 0.0 0.00 0.00 0.00 87 1010.1
20260503183012 50 218 0.0 0.0 0.00 0.00 0.00 86 1010.2
20260503181542 50 228 0.0 0.0 0.00 0.00 0.00 86 1010.3
20260503180043 50 320 0.0 4.3 0.00 0.00 0.00 87 1010.5
20260503174506 51 302 0.0 0.0 0.00 0.00 0.00 87 1010.5